• Em Portugal
  • Lista de países
  • Para 7 dias
  • Temperatura da água
  • Mapas de satélite
  • Mapa do tempo
  • Widgets de tempo
  • user-avatar
    Iniciar Sessão

    Previsão horária em Ulaangom

    Hoje, 18 Junho, Segunda-feira

    Tempo Temperatura Precipitação Vento Pressão Humidade
    00:00 +16°C° 0 mm 1 m/s 626 mmHg 41%
    01:00 +15°C° 0 mm 1 m/s 626 mmHg 41%
    02:00 +15°C° 0 mm 1 m/s 626 mmHg 42%
    03:00 +14°C° 0 mm 1 m/s 626 mmHg 42%
    04:00 +15°C° 0 mm 1 m/s 626 mmHg 39%
    05:00 +16°C° 0 mm 1 m/s 626 mmHg 36%
    06:00 +18°C° 0 mm 1 m/s 627 mmHg 33%
    07:00 +18°C° 0 mm 2 m/s 627 mmHg 31%
    08:00 +19°C° 0 mm 2 m/s 627 mmHg 30%
    09:00 +20°C° 0 mm 2 m/s 627 mmHg 28%
    10:00 +21°C° 0 mm 3 m/s 627 mmHg 27%
    11:00 +22°C° 0 mm 4 m/s 626 mmHg 25%
    12:00 +23°C° 0 mm 5 m/s 626 mmHg 24%
    13:00 +25°C° 0 mm 5 m/s 626 mmHg 23%
    14:00 +25°C° 0 mm 5 m/s 626 mmHg 23%
    15:00 +26°C° 0 mm 6 m/s 625 mmHg 22%
    16:00 +25°C° 0 mm 5 m/s 625 mmHg 23%
    17:00 +25°C° 0 mm 5 m/s 625 mmHg 24%
    18:00 +25°C° 0 mm 5 m/s 624 mmHg 24%
    19:00 +23°C° 0 mm 4 m/s 624 mmHg 27%
    20:00 +22°C° 0 mm 3 m/s 624 mmHg 30%
    21:00 +20°C° 0 mm 2 m/s 623 mmHg 33%
    22:00 +20°C° 0 mm 2 m/s 623 mmHg 34%
    23:00 +20°C° 0 mm 1 m/s 623 mmHg 36%

    Amanhã, 19 Junho, Terça-feira

    Tempo Temperatura Precipitação Vento Pressão Humidade
    00:00 +20°C° 0 mm 1 m/s 623 mmHg 37%
    01:00 +20°C° 0,1 mm 1 m/s 623 mmHg 38%
    02:00 +20°C° 0,1 mm 1 m/s 622 mmHg 39%
    03:00 +19°C° 0,1 mm 1 m/s 622 mmHg 40%
    04:00 +19°C° 0,2 mm 1 m/s 623 mmHg 42%
    05:00 +19°C° 0,2 mm 2 m/s 623 mmHg 44%
    06:00 +19°C° 0,2 mm 2 m/s 623 mmHg 46%
    07:00 +19°C° 0,1 mm 2 m/s 623 mmHg 46%
    08:00 +19°C° 0,1 mm 2 m/s 624 mmHg 45%
    09:00 +20°C° 0,1 mm 2 m/s 624 mmHg 44%
    10:00 +20°C° 0,2 mm 2 m/s 624 mmHg 44%
    11:00 +21°C° 0,2 mm 2 m/s 624 mmHg 43%
    12:00 +21°C° 0,2 mm 2 m/s 624 mmHg 43%
    13:00 +21°C° 0,4 mm 2 m/s 624 mmHg 45%
    14:00 +20°C° 0,4 mm 2 m/s 624 mmHg 47%
    15:00 +20°C° 0,4 mm 2 m/s 624 mmHg 50%
    16:00 +20°C° 0,1 mm 2 m/s 624 mmHg 49%
    17:00 +20°C° 0,1 mm 2 m/s 624 mmHg 48%
    18:00 +21°C° 0,1 mm 2 m/s 624 mmHg 47%
    19:00 +20°C° 0 mm 2 m/s 624 mmHg 52%
    20:00 +19°C° 0 mm 2 m/s 624 mmHg 56%
    21:00 +18°C° 0 mm 2 m/s 624 mmHg 61%
    22:00 +18°C° 0,1 mm 1 m/s 624 mmHg 63%
    23:00 +18°C° 0,1 mm 1 m/s 624 mmHg 65%

    Depois de amanhã, 20 Junho, Quarta-feira

    Tempo Temperatura Precipitação Vento Pressão Humidade
    00:00 +16°C° 0,1 mm 1 m/s 624 mmHg 67%
    01:00 +16°C° 0,1 mm 1 m/s 624 mmHg 68%
    02:00 +15°C° 0,1 mm 1 m/s 624 mmHg 69%
    03:00 +15°C° 0,1 mm 1 m/s 624 mmHg 70%
    04:00 +16°C° 0,1 mm 1 m/s 624 mmHg 65%
    05:00 +18°C° 0,1 mm 1 m/s 625 mmHg 60%
    06:00 +19°C° 0,1 mm 1 m/s 626 mmHg 55%
    07:00 +20°C° 0 mm 1 m/s 626 mmHg 51%
    08:00 +21°C° 0 mm 1 m/s 626 mmHg 47%
    09:00 +21°C° 0 mm 2 m/s 627 mmHg 43%
    10:00 +22°C° 0 mm 3 m/s 627 mmHg 40%
    11:00 +24°C° 0 mm 3 m/s 627 mmHg 37%
    12:00 +25°C° 0 mm 4 m/s 627 mmHg 33%
    13:00 +25°C° 0 mm 4 m/s 626 mmHg 32%
    14:00 +25°C° 0 mm 4 m/s 626 mmHg 31%
    15:00 +26°C° 0 mm 4 m/s 626 mmHg 30%
    16:00 +25°C° 0,3 mm 4 m/s 626 mmHg 33%
    17:00 +24°C° 0,3 mm 3 m/s 625 mmHg 36%
    18:00 +22°C° 0,3 mm 3 m/s 625 mmHg 38%
    19:00 +21°C° 0,2 mm 2 m/s 625 mmHg 42%
    20:00 +20°C° 0,2 mm 2 m/s 625 mmHg 46%
    21:00 +19°C° 0,2 mm 2 m/s 624 mmHg 50%
    22:00 +19°C° 0 mm 2 m/s 624 mmHg 50%
    23:00 +18°C° 0 mm 2 m/s 624 mmHg 51%

    21 Junho, Quinta-feira

    Tempo Temperatura Precipitação Vento Pressão Humidade
    00:00 +17°C° 0 mm 2 m/s 624 mmHg 52%
    01:00 +17°C° 0 mm 2 m/s 624 mmHg 52%
    02:00 +17°C° 0 mm 2 m/s 624 mmHg 52%
    03:00 +16°C° 0 mm 1 m/s 624 mmHg 52%
    04:00 +17°C° 0 mm 2 m/s 624 mmHg 50%
    05:00 +18°C° 0 mm 2 m/s 625 mmHg 47%
    06:00 +18°C° 0 mm 2 m/s 625 mmHg 45%
    07:00 +19°C° 0 mm 2 m/s 625 mmHg 43%
    08:00 +20°C° 0 mm 3 m/s 626 mmHg 40%
    09:00 +21°C° 0 mm 3 m/s 626 mmHg 38%
    10:00 +22°C° 0 mm 3 m/s 626 mmHg 35%
    11:00 +22°C° 0 mm 3 m/s 626 mmHg 33%
    12:00 +24°C° 0 mm 2 m/s 626 mmHg 31%
    13:00 +24°C° 0 mm 3 m/s 626 mmHg 29%
    14:00 +25°C° 0 mm 3 m/s 625 mmHg 27%
    15:00 +25°C° 0 mm 3 m/s 625 mmHg 26%
    16:00 +25°C° 0 mm 3 m/s 625 mmHg 27%
    17:00 +25°C° 0 mm 3 m/s 625 mmHg 29%
    18:00 +24°C° 0 mm 3 m/s 625 mmHg 30%
    19:00 +22°C° 0 mm 3 m/s 625 mmHg 35%
    20:00 +21°C° 0 mm 3 m/s 624 mmHg 40%
    21:00 +20°C° 0 mm 2 m/s 624 mmHg 44%
    22:00 +19°C° 0 mm 2 m/s 624 mmHg 47%
    23:00 +18°C° 0 mm 3 m/s 624 mmHg 50%

    22 Junho, Sexta-feira

    Tempo Temperatura Precipitação Vento Pressão Humidade
    00:00 +17°C° 0 mm 3 m/s 625 mmHg 53%
    01:00 +17°C° 0 mm 4 m/s 625 mmHg 55%
    02:00 +15°C° 0 mm 4 m/s 625 mmHg 57%
    03:00 +14°C° 0 mm 4 m/s 625 mmHg 59%
    04:00 +15°C° 0 mm 4 m/s 625 mmHg 54%
    05:00 +15°C° 0 mm 4 m/s 626 mmHg 49%
    06:00 +17°C° 0 mm 4 m/s 626 mmHg 44%
    07:00 +18°C° 0 mm 4 m/s 627 mmHg 40%
    08:00 +19°C° 0 mm 3 m/s 627 mmHg 36%
    09:00 +20°C° 0 mm 3 m/s 627 mmHg 32%
    10:00 +20°C° 0 mm 3 m/s 627 mmHg 30%
    11:00 +21°C° 0 mm 2 m/s 627 mmHg 29%
    12:00 +23°C° 0 mm 2 m/s 627 mmHg 27%
    13:00 +23°C° 0 mm 2 m/s 627 mmHg 26%
    14:00 +23°C° 0 mm 2 m/s 627 mmHg 25%
    15:00 +24°C° 0 mm 2 m/s 626 mmHg 24%
    16:00 +24°C° 0 mm 2 m/s 626 mmHg 24%
    17:00 +24°C° 0 mm 3 m/s 626 mmHg 25%
    18:00 +22°C° 0 mm 3 m/s 626 mmHg 26%
    19:00 +21°C° 0 mm 3 m/s 626 mmHg 29%
    20:00 +20°C° 0 mm 3 m/s 626 mmHg 33%
    21:00 +19°C° 0 mm 2 m/s 626 mmHg 37%
    22:00 +18°C° 0 mm 2 m/s 625 mmHg 38%
    23:00 +17°C° 0 mm 2 m/s 625 mmHg 40%

    23 Junho, Sábado

    Tempo Temperatura Precipitação Vento Pressão Humidade
    00:00 +18°C° 0 mm 1 m/s 625 mmHg 42%
    01:00 +16°C° 0 mm 1 m/s 625 mmHg 43%
    02:00 +16°C° 0 mm 1 m/s 625 mmHg 44%
    03:00 +15°C° 0 mm 1 m/s 624 mmHg 46%
    04:00 +16°C° 0 mm 1 m/s 625 mmHg 43%
    05:00 +18°C° 0 mm 1 m/s 625 mmHg 40%
    06:00 +19°C° 0 mm 1 m/s 626 mmHg 37%
    07:00 +20°C° 0 mm 1 m/s 626 mmHg 35%
    08:00 +21°C° 0 mm 1 m/s 626 mmHg 33%
    09:00 +22°C° 0 mm 1 m/s 626 mmHg 31%
    10:00 +21°C° 0 mm 2 m/s 626 mmHg 30%
    11:00 +23°C° 0 mm 2 m/s 626 mmHg 28%
    12:00 +24°C° 0 mm 2 m/s 626 mmHg 26%
    13:00 +25°C° 0 mm 2 m/s 626 mmHg 26%
    14:00 +25°C° 0 mm 2 m/s 626 mmHg 25%
    15:00 +25°C° 0 mm 3 m/s 625 mmHg 24%
    16:00 +25°C° 0 mm 3 m/s 625 mmHg 25%
    17:00 +25°C° 0 mm 3 m/s 625 mmHg 26%
    18:00 +25°C° 0 mm 3 m/s 625 mmHg 27%
    19:00 +22°C° 0 mm 3 m/s 624 mmHg 31%
    20:00 +21°C° 0 mm 2 m/s 624 mmHg 35%
    21:00 +20°C° 0 mm 2 m/s 624 mmHg 39%
    22:00 +20°C° 0 mm 1 m/s 624 mmHg 41%
    23:00 +19°C° 0 mm 1 m/s 623 mmHg 43%
    Mostrar mais